Location: Zagreb
(45.8000°N, 16.0000°E)
Time: 00:52:38
(UTC+01:00)

Transit 2A Rocket - Pass Details

Date: 07 October 2020
Orbit: 586 x 916 km, 66.7° (Epoch: 28 October)

Event Time Altitude Azimuth Distance (km) Brightness Sun altitude
Rises 22:42:44 0° 330° (NNW) 3,443 9.2 -42.3°
Reaches altitude 10° 22:45:46 10° 344° (NNW) 2,452 8.1 -42.7°
Enters shadow 22:46:37 13° 350° (N) 2,207 7.8 -42.8°
Maximum altitude 22:50:20 25° 38° (NE) 1,575 - -43.2°
Drops below altitude 10° 22:54:34 10° 92° (E) 2,263 - -43.7°
Sets 22:57:14 0° 107° (ESE) 3,121 - -44.0°
